Time,TemperatureF,DewpointF,PressureIn,WindDirection,WindDirectionDegrees,WindSpeedMPH,WindSpeedGustMPH,Humidity,HourlyPrecipIn,Conditions,Clouds,dailyrainin,SoftwareType,DateUTC
2013-05-12 00:01:00,41.7,30.4,30.14,NW,304,3.0,3.0,64,0.00,,CLR,0.00,VWS V14.01,2013-05-12 05:01:00,
2013-05-12 00:06:00,41.4,30.9,30.14,NW,321,4.0,4.0,66,0.00,,CLR,0.00,VWS V14.01,2013-05-12 05:06:00,
2013-05-12 00:11:00,41.4,30.9,30.14,NW,306,1.0,4.0,66,0.00,,CLR,0.00,VWS V14.01,2013-05-12 05:11:00,
2013-05-12 00:17:00,41.3,30.8,30.14,NW,308,3.0,4.0,66,0.00,,CLR,0.00,VWS V14.01,2013-05-12 05:17:00,
2013-05-12 00:21:00,41.2,30.7,30.14,NW,309,0.0,4.0,66,0.00,,CLR,0.00,VWS V14.01,2013-05-12 05:21:00,
2013-05-12 00:27:00,41.2,30.7,30.14,NNW,327,3.0,4.0,66,0.00,,CLR,0.00,VWS V14.01,2013-05-12 05:27:00,
2013-05-12 00:32:00,41.0,30.9,30.14,NW,317,1.0,6.0,67,0.00,,CLR,0.00,VWS V14.01,2013-05-12 05:32:00,
2013-05-12 00:37:00,40.8,30.7,30.14,NW,306,2.0,6.0,67,0.00,,CLR,0.00,VWS V14.01,2013-05-12 05:37:00,
2013-05-12 00:42:00,40.6,30.5,30.14,NW,317,2.0,6.0,67,0.00,,CLR,0.00,VWS V14.01,2013-05-12 05:42:00,
2013-05-12 00:47:00,40.4,30.7,30.15,NW,310,2.0,6.0,68,0.00,,CLR,0.00,VWS V14.01,2013-05-12 05:47:00,
2013-05-12 00:52:00,40.7,31.0,30.15,NW,326,3.0,6.0,68,0.00,,CLR,0.00,VWS V14.01,2013-05-12 05:52:00,
2013-05-12 00:57:00,40.8,30.7,30.15,WNW,300,5.0,7.0,67,0.00,,CLR,0.00,VWS V14.01,2013-05-12 05:57:00,
2013-05-12 01:02:00,40.8,30.3,30.15,NW,317,3.0,5.0,66,0.00,,CLR,0.00,VWS V14.01,2013-05-12 06:02:00,
2013-05-12 01:07:00,40.7,30.2,30.15,NW,315,3.0,5.0,66,0.00,,CLR,0.00,VWS V14.01,2013-05-12 06:07:00,
2013-05-12 01:12:00,40.4,30.3,30.15,NW,308,4.0,5.0,67,0.00,,CLR,0.00,VWS V14.01,2013-05-12 06:12:00,
2013-05-12 01:17:00,40.3,30.6,30.15,NW,311,5.0,7.0,68,0.00,,CLR,0.00,VWS V14.01,2013-05-12 06:17:00,
2013-05-12 01:22:00,40.3,30.6,30.15,NW,310,5.0,8.0,68,0.00,,CLR,0.00,VWS V14.01,2013-05-12 06:22:00,
2013-05-12 01:27:00,40.4,30.7,30.16,NW,315,5.0,8.0,68,0.00,,CLR,0.00,VWS V14.01,2013-05-12 06:27:00,
2013-05-12 01:32:00,40.3,30.6,30.16,NW,318,6.0,8.0,68,0.00,,CLR,0.00,VWS V14.01,2013-05-12 06:32:00,
2013-05-12 01:37:00,40.4,30.3,30.16,NW,306,5.0,8.0,67,0.00,,CLR,0.00,VWS V14.01,2013-05-12 06:37:00,
2013-05-12 01:42:00,40.3,30.2,30.16,NW,308,3.0,8.0,67,0.00,,CLR,0.00,VWS V14.01,2013-05-12 06:42:00,
2013-05-12 01:47:00,40.2,30.1,30.16,WNW,299,6.0,8.0,67,0.00,,CLR,0.00,VWS V14.01,2013-05-12 06:47:00,
2013-05-12 01:52:00,40.2,30.5,30.16,NW,324,5.0,8.0,68,0.00,,CLR,0.00,VWS V14.01,2013-05-12 06:52:00,
2013-05-12 01:57:00,40.0,30.3,30.16,NW,315,5.0,8.0,68,0.00,,CLR,0.00,VWS V14.01,2013-05-12 06:57:00,
2013-05-12 02:02:00,39.7,30.0,30.16,NNW,329,6.0,6.0,68,0.00,,CLR,0.00,VWS V14.01,2013-05-12 07:02:00,
2013-05-12 02:07:00,39.7,30.7,30.16,NW,311,6.0,7.0,70,0.00,,CLR,0.00,VWS V14.01,2013-05-12 07:07:00,
2013-05-12 02:12:00,39.8,30.5,30.16,NW,321,5.0,7.0,69,0.00,,CLR,0.00,VWS V14.01,2013-05-12 07:12:00,
2013-05-12 02:18:00,40.0,30.7,30.16,NW,313,6.0,7.0,69,0.00,,CLR,0.00,VWS V14.01,2013-05-12 07:18:00,
2013-05-12 02:23:00,40.0,30.7,30.16,NW,323,4.0,7.0,69,0.00,,CLR,0.00,VWS V14.01,2013-05-12 07:23:00,
2013-05-12 02:28:00,40.0,30.7,30.16,NNW,330,3.0,7.0,69,0.00,,CLR,0.00,VWS V14.01,2013-05-12 07:28:00,
2013-05-12 02:33:00,39.7,30.7,30.16,NW,321,0.0,7.0,70,0.00,,CLR,0.00,VWS V14.01,2013-05-12 07:33:00,
2013-05-12 02:38:00,39.2,30.6,30.16,NNW,328,0.0,7.0,71,0.00,,CLR,0.00,VWS V14.01,2013-05-12 07:38:00,
2013-05-12 02:43:00,39.0,30.8,30.16,NW,317,0.0,7.0,72,0.00,,CLR,0.00,VWS V14.01,2013-05-12 07:43:00,
2013-05-12 02:48:00,38.8,30.9,30.16,NNW,331,0.0,7.0,73,0.00,,CLR,0.00,VWS V14.01,2013-05-12 07:48:00,
2013-05-12 02:53:00,38.4,30.9,30.16,NNW,333,2.0,7.0,74,0.00,,CLR,0.00,VWS V14.01,2013-05-12 07:53:00,
2013-05-12 02:58:00,38.4,30.9,30.16,NW,310,0.0,7.0,74,0.00,,CLR,0.00,VWS V14.01,2013-05-12 07:58:00,
2013-05-12 03:03:00,38.5,31.0,30.16,NW,324,1.0,2.0,74,0.00,,CLR,0.00,VWS V14.01,2013-05-12 08:03:00,
2013-05-12 03:08:00,38.3,30.8,30.17,NW,323,0.0,2.0,74,0.00,,CLR,0.00,VWS V14.01,2013-05-12 08:08:00,
2013-05-12 03:13:00,37.7,29.8,30.17,NW,323,0.0,2.0,73,0.00,,CLR,0.00,VWS V14.01,2013-05-12 08:13:00,
2013-05-12 03:18:00,36.9,29.7,30.17,NW,323,0.0,2.0,75,0.00,,CLR,0.00,VWS V14.01,2013-05-12 08:18:00,
2013-05-12 03:23:00,36.6,29.8,30.17,NW,323,1.0,2.0,76,0.00,,CLR,0.00,VWS V14.01,2013-05-12 08:23:00,
2013-05-12 03:28:00,36.5,29.7,30.17,NW,308,0.0,3.0,76,0.00,,CLR,0.00,VWS V14.01,2013-05-12 08:28:00,
2013-05-12 03:33:00,36.3,29.8,30.17,NW,308,2.0,3.0,77,0.00,,CLR,0.00,VWS V14.01,2013-05-12 08:33:00,
2013-05-12 03:38:00,36.4,29.9,30.17,NW,308,1.0,3.0,77,0.00,,CLR,0.00,VWS V14.01,2013-05-12 08:38:00,
2013-05-12 03:43:00,36.4,29.9,30.17,NW,306,1.0,3.0,77,0.00,,CLR,0.00,VWS V14.01,2013-05-12 08:43:00,
2013-05-12 03:48:00,36.3,29.8,30.17,NW,305,1.0,3.0,77,0.00,,CLR,0.00,VWS V14.01,2013-05-12 08:48:00,
2013-05-12 03:53:00,36.2,30.0,30.17,NW,305,1.0,3.0,78,0.00,,CLR,0.00,VWS V14.01,2013-05-12 08:53:00,
2013-05-12 03:58:00,36.2,30.0,30.17,NW,304,0.0,3.0,78,0.00,,CLR,0.00,VWS V14.01,2013-05-12 08:58:00,
2013-05-12 04:03:00,36.0,29.8,30.17,NW,304,2.0,2.0,78,0.00,,CLR,0.00,VWS V14.01,2013-05-12 09:03:00,
2013-05-12 04:08:00,35.8,29.6,30.17,NW,304,0.0,2.0,78,0.00,,CLR,0.00,VWS V14.01,2013-05-12 09:08:00,
2013-05-12 04:13:00,35.7,29.8,30.17,NW,304,1.0,2.0,79,0.00,,CLR,0.00,VWS V14.01,2013-05-12 09:13:00,
2013-05-12 04:18:00,35.5,29.6,30.17,NW,304,2.0,3.0,79,0.00,,CLR,0.00,VWS V14.01,2013-05-12 09:18:00,
2013-05-12 04:23:00,35.5,29.6,30.17,WNW,303,2.0,3.0,79,0.00,,CLR,0.00,VWS V14.01,2013-05-12 09:23:00,
2013-05-12 04:28:00,35.5,30.0,30.17,WNW,302,2.0,3.0,80,0.00,,CLR,0.00,VWS V14.01,2013-05-12 09:28:00,
2013-05-12 04:33:00,35.5,30.0,30.17,WNW,300,2.0,5.0,80,0.00,,CLR,0.00,VWS V14.01,2013-05-12 09:33:00,
2013-05-12 04:39:00,35.7,30.1,30.17,NW,309,1.0,5.0,80,0.00,,CLR,0.00,VWS V14.01,2013-05-12 09:39:00,
2013-05-12 04:44:00,35.8,30.2,30.17,NW,320,1.0,5.0,80,0.00,,CLR,0.00,VWS V14.01,2013-05-12 09:44:00,
2013-05-12 04:49:00,35.7,30.1,30.17,NW,312,2.0,5.0,80,0.00,,CLR,0.00,VWS V14.01,2013-05-12 09:49:00,
2013-05-12 04:54:00,35.7,30.1,30.17,NW,304,2.0,5.0,80,0.00,,CLR,0.00,VWS V14.01,2013-05-12 09:54:00,
2013-05-12 04:59:00,35.6,30.0,30.17,NW,304,2.0,5.0,80,0.00,,CLR,0.00,VWS V14.01,2013-05-12 09:59:00,
2013-05-12 05:04:00,35.4,29.9,30.17,NW,313,1.0,3.0,80,0.00,,CLR,0.00,VWS V14.01,2013-05-12 10:04:00,
2013-05-12 05:09:00,35.3,29.8,30.17,NW,311,0.0,4.0,80,0.00,,CLR,0.00,VWS V14.01,2013-05-12 10:09:00,
2013-05-12 05:14:00,35.1,29.6,30.17,NW,311,0.0,4.0,80,0.00,,CLR,0.00,VWS V14.01,2013-05-12 10:14:00,
2013-05-12 05:19:00,35.1,29.6,30.17,WNW,302,3.0,4.0,80,0.00,,CLR,0.00,VWS V14.01,2013-05-12 10:19:00,
2013-05-12 05:24:00,35.3,29.8,30.17,WNW,300,2.0,4.0,80,0.00,,CLR,0.00,VWS V14.01,2013-05-12 10:24:00,
2013-05-12 05:29:00,35.2,29.7,30.17,NW,308,1.0,4.0,80,0.00,,CLR,0.00,VWS V14.01,2013-05-12 10:29:00,
2013-05-12 05:34:00,35.0,29.8,30.17,NW,305,4.0,6.0,81,0.00,,CLR,0.00,VWS V14.01,2013-05-12 10:34:00,
2013-05-12 05:39:00,35.1,29.9,30.17,WNW,302,2.0,6.0,81,0.00,,CLR,0.00,VWS V14.01,2013-05-12 10:39:00,
2013-05-12 05:44:00,35.0,29.8,30.18,NW,305,2.0,6.0,81,0.00,,CLR,0.00,VWS V14.01,2013-05-12 10:44:00,
2013-05-12 05:49:00,35.1,29.9,30.18,WNW,301,4.0,6.0,81,0.00,,CLR,0.00,VWS V14.01,2013-05-12 10:49:00,
2013-05-12 05:54:00,35.0,29.8,30.18,NW,311,3.0,6.0,81,0.00,,CLR,0.00,VWS V14.01,2013-05-12 10:54:00,
2013-05-12 05:59:00,34.9,30.0,30.18,NW,313,4.0,6.0,82,0.00,,CLR,0.00,VWS V14.01,2013-05-12 10:59:00,
2013-05-12 06:04:00,34.9,30.0,30.18,NW,315,3.0,5.0,82,0.00,,CLR,0.00,VWS V14.01,2013-05-12 11:04:00,
2013-05-12 06:09:00,35.0,30.1,30.18,NW,319,3.0,7.0,82,0.00,,CLR,0.00,VWS V14.01,2013-05-12 11:09:00,
2013-05-12 06:14:00,35.2,30.0,30.18,NW,321,5.0,7.0,81,0.00,,CLR,0.00,VWS V14.01,2013-05-12 11:14:00,
2013-05-12 06:19:00,35.2,30.0,30.18,WNW,299,5.0,7.0,81,0.00,,CLR,0.00,VWS V14.01,2013-05-12 11:19:00,
2013-05-12 06:25:00,35.3,30.1,30.19,NW,308,5.0,8.0,81,0.00,,CLR,0.00,VWS V14.01,2013-05-12 11:25:00,
2013-05-12 06:30:00,35.4,30.2,30.19,WNW,303,6.0,8.0,81,0.00,,CLR,0.00,VWS V14.01,2013-05-12 11:30:00,
2013-05-12 06:35:00,35.6,30.0,30.19,NW,313,4.0,8.0,80,0.00,,CLR,0.00,VWS V14.01,2013-05-12 11:35:00,
2013-05-12 06:40:00,35.8,30.2,30.19,NW,311,4.0,8.0,80,0.00,,CLR,0.00,VWS V14.01,2013-05-12 11:40:00,
2013-05-12 06:45:00,36.0,30.4,30.19,NW,313,2.0,8.0,80,0.00,,CLR,0.00,VWS V14.01,2013-05-12 11:45:00,
2013-05-12 06:50:00,36.2,30.3,30.19,NW,309,3.0,8.0,79,0.00,,CLR,0.00,VWS V14.01,2013-05-12 11:50:00,
2013-05-12 06:55:00,36.5,30.6,30.19,NW,311,4.0,8.0,79,0.00,,CLR,0.00,VWS V14.01,2013-05-12 11:55:00,
2013-05-12 07:00:00,36.8,30.9,30.20,NW,319,5.0,8.0,79,0.00,,CLR,0.00,VWS V14.01,2013-05-12 12:00:00,
2013-05-12 07:05:00,37.0,30.8,30.20,WNW,302,4.0,5.0,78,0.00,,CLR,0.00,VWS V14.01,2013-05-12 12:05:00,
2013-05-12 07:10:00,37.3,31.1,30.20,NW,319,3.0,6.0,78,0.00,,CLR,0.00,VWS V14.01,2013-05-12 12:10:00,
2013-05-12 07:15:00,37.5,31.3,30.20,NW,309,2.0,6.0,78,0.00,,CLR,0.00,VWS V14.01,2013-05-12 12:15:00,
2013-05-12 07:20:00,38.0,31.8,30.20,NW,312,3.0,6.0,78,0.00,,CLR,0.00,VWS V14.01,2013-05-12 12:20:00,
2013-05-12 07:25:00,38.5,32.2,30.20,NW,320,3.0,6.0,78,0.00,,CLR,0.00,VWS V14.01,2013-05-12 12:25:00,
2013-05-12 07:30:00,38.9,32.0,30.21,WNW,303,5.0,6.0,76,0.00,,CLR,0.00,VWS V14.01,2013-05-12 12:30:00,
2013-05-12 07:35:00,39.3,32.4,30.20,NW,321,7.0,8.0,76,0.00,,CLR,0.00,VWS V14.01,2013-05-12 12:35:00,
2013-05-12 07:40:00,39.7,32.1,30.20,NW,306,4.0,8.0,74,0.00,,CLR,0.00,VWS V14.01,2013-05-12 12:40:00,
2013-05-12 07:45:00,40.3,32.7,30.20,NW,313,6.0,8.0,74,0.00,,CLR,0.00,VWS V14.01,2013-05-12 12:45:00,
2013-05-12 07:50:00,40.9,32.9,30.20,NW,304,4.0,8.0,73,0.00,,CLR,0.00,VWS V14.01,2013-05-12 12:50:00,
2013-05-12 07:55:00,41.4,33.4,30.20,NW,311,4.0,8.0,73,0.00,,CLR,0.00,VWS V14.01,2013-05-12 12:55:00,
2013-05-12 08:00:00,42.0,33.3,30.20,NW,317,1.0,8.0,71,0.00,,CLR,0.00,VWS V14.01,2013-05-12 13:00:00,
2013-05-12 08:05:00,42.5,33.8,30.21,NW,315,6.0,7.0,71,0.00,,CLR,0.00,VWS V14.01,2013-05-12 13:05:00,
2013-05-12 08:10:00,43.3,33.5,30.20,NW,319,4.0,7.0,68,0.00,,CLR,0.00,VWS V14.01,2013-05-12 13:10:00,
2013-05-12 08:16:00,44.1,34.2,30.21,NNW,328,4.0,8.0,68,0.00,,CLR,0.00,VWS V14.01,2013-05-12 13:16:00,
2013-05-12 08:21:00,44.7,32.9,30.21,NW,307,8.0,8.0,63,0.00,,CLR,0.00,VWS V14.01,2013-05-12 13:21:00,
2013-05-12 08:26:00,44.7,31.3,30.21,NNW,330,10.0,11.0,59,0.00,,CLR,0.00,VWS V14.01,2013-05-12 13:26:00,
2013-05-12 08:31:00,44.6,29.9,30.21,NW,316,3.0,11.0,56,0.00,,CLR,0.00,VWS V14.01,2013-05-12 13:31:00,
2013-05-12 08:36:00,45.2,30.9,30.21,NW,319,7.0,11.0,57,0.00,,CLR,0.00,VWS V14.01,2013-05-12 13:36:00,
2013-05-12 08:41:00,45.8,31.9,30.21,NW,320,9.0,11.0,58,0.00,,CLR,0.00,VWS V14.01,2013-05-12 13:41:00,
2013-05-12 08:46:00,45.9,30.2,30.21,NNW,333,6.0,11.0,54,0.00,,CLR,0.00,VWS V14.01,2013-05-12 13:46:00,
2013-05-12 08:51:00,46.5,31.7,30.21,NNW,338,4.0,11.0,56,0.00,,CLR,0.00,VWS V14.01,2013-05-12 13:51:00,
2013-05-12 08:56:00,47.4,33.0,30.21,NW,317,7.0,11.0,57,0.00,,CLR,0.00,VWS V14.01,2013-05-12 13:56:00,
2013-05-12 09:01:00,47.2,30.5,30.21,NNW,333,7.0,9.0,52,0.00,,CLR,0.00,VWS V14.01,2013-05-12 14:01:00,
2013-05-12 09:06:00,47.9,33.0,30.21,NW,319,8.0,11.0,56,0.00,,CLR,0.00,VWS V14.01,2013-05-12 14:06:00,
2013-05-12 09:11:00,48.0,32.6,30.21,NNW,331,4.0,12.0,55,0.00,,CLR,0.00,VWS V14.01,2013-05-12 14:11:00,
2013-05-12 09:16:00,48.1,30.8,30.21,NNW,327,4.0,12.0,51,0.00,,CLR,0.00,VWS V14.01,2013-05-12 14:16:00,
2013-05-12 09:21:00,48.4,31.6,30.22,NNW,333,10.0,13.0,52,0.00,,CLR,0.00,VWS V14.01,2013-05-12 14:21:00,
2013-05-12 09:26:00,48.2,30.5,30.22,NNW,334,11.0,13.0,50,0.00,,CLR,0.00,VWS V14.01,2013-05-12 14:26:00,
2013-05-12 09:31:00,48.6,31.8,30.22,NNW,331,8.0,13.0,52,0.00,,CLR,0.00,VWS V14.01,2013-05-12 14:31:00,
2013-05-12 09:36:00,48.8,32.4,30.22,NW,323,5.0,13.0,53,0.00,,CLR,0.00,VWS V14.01,2013-05-12 14:36:00,
2013-05-12 09:41:00,49.7,31.8,30.22,NW,313,6.0,13.0,50,0.00,,CLR,0.00,VWS V14.01,2013-05-12 14:41:00,
2013-05-12 09:46:00,49.4,30.0,30.22,NNW,342,8.0,13.0,47,0.00,,CLR,0.00,VWS V14.01,2013-05-12 14:46:00,
2013-05-12 09:51:00,49.4,30.5,30.22,NW,317,6.0,13.0,48,0.00,,CLR,0.00,VWS V14.01,2013-05-12 14:51:00,
2013-05-12 09:56:00,50.3,32.9,30.22,NW,320,7.0,13.0,51,0.00,,CLR,0.00,VWS V14.01,2013-05-12 14:56:00,
2013-05-12 10:01:00,51.1,33.6,30.22,NW,325,9.0,10.0,51,0.00,,CLR,0.00,VWS V14.01,2013-05-12 15:01:00,
2013-05-12 10:07:00,51.4,32.4,30.22,NW,322,8.0,11.0,48,0.00,,CLR,0.00,VWS V14.01,2013-05-12 15:07:00,
2013-05-12 10:12:00,51.4,31.9,30.22,WNW,292,7.0,18.0,47,0.00,,CLR,0.00,VWS V14.01,2013-05-12 15:12:00,
2013-05-12 10:17:00,51.1,32.6,30.22,WNW,299,7.0,18.0,49,0.00,,CLR,0.00,VWS V14.01,2013-05-12 15:17:00,
2013-05-12 10:22:00,51.8,33.3,30.22,NNW,339,10.0,18.0,49,0.00,,CLR,0.00,VWS V14.01,2013-05-12 15:22:00,
2013-05-12 10:27:00,51.8,32.2,30.22,NNW,348,10.0,18.0,47,0.00,,CLR,0.00,VWS V14.01,2013-05-12 15:27:00,
2013-05-12 10:32:00,51.4,31.3,30.22,NW,318,9.0,18.0,46,0.00,,CLR,0.00,VWS V14.01,2013-05-12 15:32:00,
2013-05-12 10:37:00,52.3,33.7,30.22,NW,326,11.0,18.0,49,0.00,,CLR,0.00,VWS V14.01,2013-05-12 15:37:00,
2013-05-12 10:42:00,52.3,31.0,30.22,WNW,296,7.0,18.0,44,0.00,,CLR,0.00,VWS V14.01,2013-05-12 15:42:00,
2013-05-12 10:47:00,51.7,32.1,30.22,NW,318,10.0,18.0,47,0.00,,CLR,0.00,VWS V14.01,2013-05-12 15:47:00,
2013-05-12 10:52:00,52.5,32.9,30.21,NW,320,11.0,18.0,47,0.00,,CLR,0.00,VWS V14.01,2013-05-12 15:52:00,
2013-05-12 10:57:00,53.3,32.5,30.21,NW,319,5.0,18.0,45,0.00,,CLR,0.00,VWS V14.01,2013-05-12 15:57:00,
2013-05-12 11:02:00,53.3,33.6,30.21,NW,317,6.0,13.0,47,0.00,,CLR,0.00,VWS V14.01,2013-05-12 16:02:00,
2013-05-12 11:07:00,52.6,29.6,30.21,NW,323,9.0,13.0,41,0.00,,CLR,0.00,VWS V14.01,2013-05-12 16:07:00,
2013-05-12 11:12:00,53.3,31.4,30.21,North,355,5.0,13.0,43,0.00,,CLR,0.00,VWS V14.01,2013-05-12 16:12:00,
2013-05-12 11:17:00,53.6,33.3,30.21,WNW,294,14.0,14.0,46,0.00,,CLR,0.00,VWS V14.01,2013-05-12 16:17:00,
2013-05-12 11:22:00,54.8,33.9,30.21,NNW,333,6.0,14.0,45,0.00,,CLR,0.00,VWS V14.01,2013-05-12 16:22:00,
2013-05-12 11:27:00,54.1,31.5,30.21,WNW,302,8.0,14.0,42,0.00,,CLR,0.00,VWS V14.01,2013-05-12 16:27:00,
2013-05-12 11:32:00,54.2,31.6,30.21,NW,311,5.0,14.0,42,0.00,,CLR,0.00,VWS V14.01,2013-05-12 16:32:00,
2013-05-12 11:37:00,55.0,32.9,30.21,NNW,327,7.0,14.0,43,0.00,,CLR,0.00,VWS V14.01,2013-05-12 16:37:00,
2013-05-12 11:42:00,55.0,31.8,30.21,NW,316,9.0,14.0,41,0.00,,CLR,0.00,VWS V14.01,2013-05-12 16:42:00,
2013-05-12 11:47:00,54.9,31.0,30.21,WNW,290,3.0,14.0,40,0.00,,CLR,0.00,VWS V14.01,2013-05-12 16:47:00,
2013-05-12 11:52:00,55.9,32.6,30.21,NW,319,10.0,14.0,41,0.00,,CLR,0.00,VWS V14.01,2013-05-12 16:52:00,
2013-05-12 11:57:00,55.7,33.0,30.21,NW,317,6.0,14.0,42,0.00,,CLR,0.00,VWS V14.01,2013-05-12 16:57:00,
2013-05-12 12:02:00,54.0,30.9,30.21,WNW,288,7.0,10.0,41,0.00,,CLR,0.00,VWS V14.01,2013-05-12 17:02:00,
2013-05-12 12:08:00,55.4,30.9,30.21,WNW,302,10.0,11.0,39,0.00,,CLR,0.00,VWS V14.01,2013-05-12 17:08:00,
2013-05-12 12:13:00,56.6,32.6,30.20,West,265,8.0,14.0,40,0.00,,CLR,0.00,VWS V14.01,2013-05-12 17:13:00,
2013-05-12 12:18:00,54.0,29.0,30.20,NW,308,4.0,14.0,38,0.00,,CLR,0.00,VWS V14.01,2013-05-12 17:18:00,
2013-05-12 12:23:00,54.8,34.4,30.20,WNW,303,8.0,15.0,46,0.00,,CLR,0.00,VWS V14.01,2013-05-12 17:23:00,
2013-05-12 12:28:00,56.4,31.8,30.21,NW,306,9.0,16.0,39,0.00,,CLR,0.00,VWS V14.01,2013-05-12 17:28:00,
2013-05-12 12:33:00,56.7,30.1,30.20,NNW,334,6.0,16.0,36,0.00,,CLR,0.00,VWS V14.01,2013-05-12 17:33:00,
2013-05-12 12:38:00,56.7,30.7,30.20,WNW,283,8.0,16.0,37,0.00,,CLR,0.00,VWS V14.01,2013-05-12 17:38:00,
2013-05-12 12:43:00,56.7,32.7,30.20,NW,326,11.0,16.0,40,0.00,,CLR,0.00,VWS V14.01,2013-05-12 17:43:00,
2013-05-12 12:48:00,56.7,33.9,30.20,NNW,336,11.0,16.0,42,0.00,,CLR,0.00,VWS V14.01,2013-05-12 17:48:00,
2013-05-12 12:53:00,57.3,31.9,30.20,NW,314,6.0,16.0,38,0.00,,CLR,0.00,VWS V14.01,2013-05-12 17:53:00,
2013-05-12 12:58:00,56.9,31.6,30.20,NW,305,7.0,16.0,38,0.00,,CLR,0.00,VWS V14.01,2013-05-12 17:58:00,
2013-05-12 13:03:00,57.7,31.6,30.19,WNW,300,9.0,13.0,37,0.00,,CLR,0.00,VWS V14.01,2013-05-12 18:03:00,
2013-05-12 13:08:00,58.0,33.2,30.19,NNW,336,8.0,13.0,39,0.00,,CLR,0.00,VWS V14.01,2013-05-12 18:08:00,
2013-05-12 13:13:00,57.8,31.7,30.19,NW,324,8.0,13.0,37,0.00,,CLR,0.00,VWS V14.01,2013-05-12 18:13:00,
2013-05-12 13:18:00,58.1,32.7,30.19,NW,313,11.0,14.0,38,0.00,,CLR,0.00,VWS V14.01,2013-05-12 18:18:00,
2013-05-12 13:23:00,57.9,32.5,30.19,WNW,300,10.0,14.0,38,0.00,,CLR,0.00,VWS V14.01,2013-05-12 18:23:00,
2013-05-12 13:28:00,58.8,33.9,30.19,NW,305,10.0,15.0,39,0.00,,CLR,0.00,VWS V14.01,2013-05-12 18:28:00,
2013-05-12 13:33:00,58.3,32.2,30.18,WNW,302,5.0,15.0,37,0.00,,CLR,0.00,VWS V14.01,2013-05-12 18:33:00,
2013-05-12 13:38:00,56.9,32.8,30.18,NW,317,8.0,15.0,40,0.00,,CLR,0.00,VWS V14.01,2013-05-12 18:38:00,
2013-05-12 13:44:00,57.0,29.6,30.18,WNW,291,3.0,15.0,35,0.00,,CLR,0.00,VWS V14.01,2013-05-12 18:44:00,
2013-05-12 13:49:00,56.8,31.5,30.18,NNW,329,8.0,15.0,38,0.00,,CLR,0.00,VWS V14.01,2013-05-12 18:49:00,
2013-05-12 13:54:00,58.2,32.7,30.18,WNW,287,7.0,15.0,38,0.00,,CLR,0.00,VWS V14.01,2013-05-12 18:54:00,
2013-05-12 13:59:00,56.2,27.5,30.17,WNW,286,4.0,15.0,33,0.00,,CLR,0.00,VWS V14.01,2013-05-12 18:59:00,
2013-05-12 14:04:00,58.1,33.3,30.17,NW,306,11.0,16.0,39,0.00,,CLR,0.00,VWS V14.01,2013-05-12 19:04:00,
2013-05-12 14:09:00,58.8,31.2,30.17,NW,310,6.0,18.0,35,0.00,,CLR,0.00,VWS V14.01,2013-05-12 19:09:00,
2013-05-12 14:14:00,59.3,32.4,30.17,NW,321,6.0,18.0,36,0.00,,CLR,0.00,VWS V14.01,2013-05-12 19:14:00,
2013-05-12 14:19:00,58.2,30.0,30.17,West,273,7.0,18.0,34,0.00,,CLR,0.00,VWS V14.01,2013-05-12 19:19:00,
2013-05-12 14:24:00,57.3,29.9,30.16,WNW,285,5.0,18.0,35,0.00,,CLR,0.00,VWS V14.01,2013-05-12 19:24:00,
2013-05-12 14:29:00,57.3,31.9,30.16,WNW,292,7.0,18.0,38,0.00,,CLR,0.00,VWS V14.01,2013-05-12 19:29:00,
2013-05-12 14:34:00,57.2,29.1,30.16,NW,324,9.0,18.0,34,0.00,,CLR,0.00,VWS V14.01,2013-05-12 19:34:00,
2013-05-12 14:39:00,58.8,32.6,30.16,NW,326,9.0,18.0,37,0.00,,CLR,0.00,VWS V14.01,2013-05-12 19:39:00,
2013-05-12 14:44:00,59.6,33.3,30.16,NW,322,9.0,18.0,37,0.00,,CLR,0.00,VWS V14.01,2013-05-12 19:44:00,
2013-05-12 14:49:00,59.4,31.0,30.16,NNW,331,14.0,18.0,34,0.00,,CLR,0.00,VWS V14.01,2013-05-12 19:49:00,
2013-05-12 14:54:00,58.2,31.4,30.16,NW,317,6.0,18.0,36,0.00,,CLR,0.00,VWS V14.01,2013-05-12 19:54:00,
2013-05-12 14:59:00,57.6,29.5,30.16,WNW,283,6.0,18.0,34,0.00,,CLR,0.00,VWS V14.01,2013-05-12 19:59:00,
2013-05-12 15:04:00,57.4,31.4,30.15,WNW,302,3.0,9.0,37,0.00,,CLR,0.00,VWS V14.01,2013-05-12 20:04:00,
2013-05-12 15:09:00,58.6,30.3,30.15,WNW,297,5.0,15.0,34,0.00,,CLR,0.00,VWS V14.01,2013-05-12 20:09:00,
2013-05-12 15:14:00,57.3,27.7,30.15,NW,305,3.0,15.0,32,0.00,,CLR,0.00,VWS V14.01,2013-05-12 20:14:00,
2013-05-12 15:19:00,59.3,32.4,30.15,NNW,328,7.0,15.0,36,0.00,,CLR,0.00,VWS V14.01,2013-05-12 20:19:00,
2013-05-12 15:24:00,58.8,32.6,30.15,WNW,298,8.0,15.0,37,0.00,,CLR,0.00,VWS V14.01,2013-05-12 20:24:00,
2013-05-12 15:29:00,58.0,29.1,30.15,West,271,8.0,15.0,33,0.00,,CLR,0.00,VWS V14.01,2013-05-12 20:29:00,
2013-05-12 15:34:00,58.0,29.1,30.15,WNW,285,6.0,15.0,33,0.00,,CLR,0.00,VWS V14.01,2013-05-12 20:34:00,
2013-05-12 15:40:00,57.2,29.1,30.14,West,277,5.0,15.0,34,0.00,,CLR,0.00,VWS V14.01,2013-05-12 20:40:00,
2013-05-12 15:45:00,57.3,29.9,30.14,WNW,301,10.0,15.0,35,0.00,,CLR,0.00,VWS V14.01,2013-05-12 20:45:00,
2013-05-12 15:50:00,58.6,33.1,30.14,WNW,300,9.0,15.0,38,0.00,,CLR,0.00,VWS V14.01,2013-05-12 20:50:00,
2013-05-12 15:55:00,59.0,32.8,30.14,NNW,336,10.0,15.0,37,0.00,,CLR,0.00,VWS V14.01,2013-05-12 20:55:00,
2013-05-12 16:00:00,57.6,28.0,30.13,West,279,3.0,15.0,32,0.00,,CLR,0.00,VWS V14.01,2013-05-12 21:00:00,
2013-05-12 16:05:00,58.1,30.6,30.13,WNW,284,6.0,10.0,35,0.00,,CLR,0.00,VWS V14.01,2013-05-12 21:05:00,
2013-05-12 16:10:00,58.2,32.7,30.13,WNW,299,10.0,12.0,38,0.00,,CLR,0.00,VWS V14.01,2013-05-12 21:10:00,
2013-05-12 16:15:00,59.1,31.5,30.13,WNW,302,5.0,12.0,35,0.00,,CLR,0.00,VWS V14.01,2013-05-12 21:15:00,
2013-05-12 16:20:00,58.7,30.4,30.13,NW,326,8.0,15.0,34,0.00,,CLR,0.00,VWS V14.01,2013-05-12 21:20:00,
2013-05-12 16:25:00,58.8,31.2,30.12,NW,318,5.0,15.0,35,0.00,,CLR,0.00,VWS V14.01,2013-05-12 21:25:00,
2013-05-12 16:30:00,59.2,32.3,30.12,NW,317,9.0,15.0,36,0.00,,CLR,0.00,VWS V14.01,2013-05-12 21:30:00,
2013-05-12 16:35:00,59.1,30.0,30.12,WNW,298,4.0,15.0,33,0.00,,CLR,0.00,VWS V14.01,2013-05-12 21:35:00,
2013-05-12 16:40:00,58.3,28.6,30.12,WNW,285,5.0,15.0,32,0.00,,CLR,0.00,VWS V14.01,2013-05-12 21:40:00,
2013-05-12 16:45:00,58.8,31.9,30.12,NW,312,12.0,15.0,36,0.00,,CLR,0.00,VWS V14.01,2013-05-12 21:45:00,
2013-05-12 16:50:00,59.1,30.8,30.12,WNW,295,4.0,15.0,34,0.00,,CLR,0.00,VWS V14.01,2013-05-12 21:50:00,
2013-05-12 16:55:00,58.6,30.3,30.12,North,5,6.0,15.0,34,0.00,,CLR,0.00,VWS V14.01,2013-05-12 21:55:00,
2013-05-12 17:00:00,59.2,29.4,30.12,WNW,286,7.0,15.0,32,0.00,,CLR,0.00,VWS V14.01,2013-05-12 22:00:00,
2013-05-12 17:05:00,58.5,27.2,30.11,NW,309,5.0,10.0,30,0.00,,CLR,0.00,VWS V14.01,2013-05-12 22:05:00,
2013-05-12 17:10:00,58.4,26.3,30.11,West,271,7.0,12.0,29,0.00,,CLR,0.00,VWS V14.01,2013-05-12 22:10:00,
2013-05-12 17:15:00,58.4,27.1,30.11,West,279,2.0,12.0,30,0.00,,CLR,0.00,VWS V14.01,2013-05-12 22:15:00,
2013-05-12 17:21:00,59.3,31.0,30.11,NW,315,8.0,12.0,34,0.00,,CLR,0.00,VWS V14.01,2013-05-12 22:21:00,
2013-05-12 17:26:00,59.3,30.2,30.11,NW,306,7.0,13.0,33,0.00,,CLR,0.00,VWS V14.01,2013-05-12 22:26:00,
2013-05-12 17:31:00,59.3,31.0,30.11,WNW,297,6.0,13.0,34,0.00,,CLR,0.00,VWS V14.01,2013-05-12 22:31:00,
2013-05-12 17:36:00,59.3,28.7,30.11,WNW,284,5.0,14.0,31,0.00,,CLR,0.00,VWS V14.01,2013-05-12 22:36:00,
2013-05-12 17:41:00,58.9,27.5,30.11,WNW,283,5.0,14.0,30,0.00,,CLR,0.00,VWS V14.01,2013-05-12 22:41:00,
2013-05-12 17:46:00,59.1,29.3,30.10,West,269,4.0,14.0,32,0.00,,CLR,0.00,VWS V14.01,2013-05-12 22:46:00,
2013-05-12 17:51:00,59.4,31.0,30.10,NW,321,8.0,14.0,34,0.00,,CLR,0.00,VWS V14.01,2013-05-12 22:51:00,
2013-05-12 17:56:00,59.9,29.2,30.10,West,281,7.0,14.0,31,0.00,,CLR,0.00,VWS V14.01,2013-05-12 22:56:00,
2013-05-12 18:01:00,59.3,27.1,30.10,NNW,339,7.0,14.0,29,0.00,,CLR,0.00,VWS V14.01,2013-05-12 23:01:00,
2013-05-12 18:06:00,59.3,27.9,30.10,West,273,8.0,13.0,30,0.00,,CLR,0.00,VWS V14.01,2013-05-12 23:06:00,
2013-05-12 18:11:00,59.3,28.7,30.10,NNW,331,6.0,13.0,31,0.00,,CLR,0.00,VWS V14.01,2013-05-12 23:11:00,
2013-05-12 18:16:00,59.3,28.7,30.10,NNW,329,9.0,14.0,31,0.00,,CLR,0.00,VWS V14.01,2013-05-12 23:16:00,
2013-05-12 18:21:00,59.2,27.8,30.09,NW,317,7.0,14.0,30,0.00,,CLR,0.00,VWS V14.01,2013-05-12 23:21:00,
2013-05-12 18:26:00,59.4,28.0,30.09,NNW,328,5.0,14.0,30,0.00,,CLR,0.00,VWS V14.01,2013-05-12 23:26:00,
2013-05-12 18:31:00,59.3,27.1,30.09,WNW,284,7.0,14.0,29,0.00,,CLR,0.00,VWS V14.01,2013-05-12 23:31:00,
2013-05-12 18:36:00,59.3,30.2,30.09,NW,313,8.0,14.0,33,0.00,,CLR,0.00,VWS V14.01,2013-05-12 23:36:00,
2013-05-12 18:41:00,59.2,28.6,30.09,NW,321,9.0,14.0,31,0.00,,CLR,0.00,VWS V14.01,2013-05-12 23:41:00,
2013-05-12 18:46:00,58.9,26.7,30.09,NW,311,8.0,14.0,29,0.00,,CLR,0.00,VWS V14.01,2013-05-12 23:46:00,
2013-05-12 18:51:00,59.0,28.4,30.09,NW,307,6.0,14.0,31,0.00,,CLR,0.00,VWS V14.01,2013-05-12 23:51:00,
2013-05-12 18:56:00,58.7,28.9,30.10,NW,309,8.0,14.0,32,0.00,,CLR,0.00,VWS V14.01,2013-05-12 23:56:00,
2013-05-12 19:01:00,58.6,28.1,30.09,NW,321,5.0,9.0,31,0.00,,CLR,0.00,VWS V14.01,2013-05-13 00:01:00,
2013-05-12 19:06:00,58.5,27.2,30.09,NNW,337,7.0,13.0,30,0.00,,CLR,0.00,VWS V14.01,2013-05-13 00:06:00,
2013-05-12 19:11:00,58.1,29.2,30.09,NW,309,6.0,13.0,33,0.00,,CLR,0.00,VWS V14.01,2013-05-13 00:11:00,
2013-05-12 19:17:00,57.9,29.0,30.09,NNW,339,6.0,13.0,33,0.00,,CLR,0.00,VWS V14.01,2013-05-13 00:17:00,
2013-05-12 19:22:00,57.7,28.1,30.09,NW,323,5.0,13.0,32,0.00,,CLR,0.00,VWS V14.01,2013-05-13 00:22:00,
2013-05-12 19:27:00,57.5,28.6,30.09,NW,319,5.0,13.0,33,0.00,,CLR,0.00,VWS V14.01,2013-05-13 00:27:00,
2013-05-12 19:32:00,57.2,28.4,30.09,NW,310,7.0,13.0,33,0.00,,CLR,0.00,VWS V14.01,2013-05-13 00:32:00,
2013-05-12 19:37:00,57.0,27.5,30.09,NW,316,8.0,13.0,32,0.00,,CLR,0.00,VWS V14.01,2013-05-13 00:37:00,
2013-05-12 19:42:00,56.8,28.8,30.10,NNW,327,5.0,13.0,34,0.00,,CLR,0.00,VWS V14.01,2013-05-13 00:42:00,
2013-05-12 19:47:00,56.4,29.1,30.10,NW,314,4.0,13.0,35,0.00,,CLR,0.00,VWS V14.01,2013-05-13 00:47:00,
2013-05-12 19:52:00,56.0,29.4,30.09,NW,317,3.0,13.0,36,0.00,,CLR,0.00,VWS V14.01,2013-05-13 00:52:00,
2013-05-12 19:57:00,55.8,29.3,30.09,NNW,331,3.0,13.0,36,0.00,,CLR,0.00,VWS V14.01,2013-05-13 00:57:00,
2013-05-12 20:02:00,55.3,30.1,30.09,NNW,338,2.0,5.0,38,0.00,,CLR,0.00,VWS V14.01,2013-05-13 01:02:00,
2013-05-12 20:07:00,55.0,29.2,30.09,NW,315,1.0,6.0,37,0.00,,CLR,0.00,VWS V14.01,2013-05-13 01:07:00,
2013-05-12 20:12:00,54.5,29.4,30.10,NW,314,3.0,6.0,38,0.00,,CLR,0.00,VWS V14.01,2013-05-13 01:12:00,
2013-05-12 20:17:00,54.0,30.2,30.10,NW,314,0.0,6.0,40,0.00,,CLR,0.00,VWS V14.01,2013-05-13 01:17:00,
2013-05-12 20:22:00,53.7,29.4,30.09,NW,311,3.0,6.0,39,0.00,,CLR,0.00,VWS V14.01,2013-05-13 01:22:00,
2013-05-12 20:27:00,53.5,29.2,30.09,NW,310,2.0,6.0,39,0.00,,CLR,0.00,VWS V14.01,2013-05-13 01:27:00,
2013-05-12 20:32:00,53.2,28.9,30.10,NW,310,0.0,6.0,39,0.00,,CLR,0.00,VWS V14.01,2013-05-13 01:32:00,
2013-05-12 20:37:00,52.4,31.7,30.10,NW,310,0.0,6.0,45,0.00,,CLR,0.00,VWS V14.01,2013-05-13 01:37:00,
2013-05-12 20:42:00,51.9,31.2,30.10,NW,310,0.0,6.0,45,0.00,,CLR,0.00,VWS V14.01,2013-05-13 01:42:00,
2013-05-12 20:47:00,51.2,32.2,30.10,NW,310,0.0,6.0,48,0.00,,CLR,0.00,VWS V14.01,2013-05-13 01:47:00,
2013-05-12 20:52:00,50.4,32.0,30.10,NW,310,0.0,6.0,49,0.00,,CLR,0.00,VWS V14.01,2013-05-13 01:52:00,
2013-05-12 20:57:00,49.7,31.8,30.10,NW,310,0.0,6.0,50,0.00,,CLR,0.00,VWS V14.01,2013-05-13 01:57:00,
2013-05-12 21:03:00,48.6,31.8,30.10,NW,310,0.0,0.0,52,0.00,,CLR,0.00,VWS V14.01,2013-05-13 02:03:00,
2013-05-12 21:08:00,48.0,31.7,30.10,NW,310,0.0,0.0,53,0.00,,CLR,0.00,VWS V14.01,2013-05-13 02:08:00,
2013-05-12 21:13:00,47.7,32.3,30.10,NW,310,0.0,0.0,55,0.00,,CLR,0.00,VWS V14.01,2013-05-13 02:13:00,
2013-05-12 21:18:00,47.5,32.2,30.10,NW,310,0.0,0.0,55,0.00,,CLR,0.00,VWS V14.01,2013-05-13 02:18:00,
2013-05-12 21:23:00,47.1,32.2,30.10,NW,310,0.0,0.0,56,0.00,,CLR,0.00,VWS V14.01,2013-05-13 02:23:00,
2013-05-12 21:28:00,46.8,32.4,30.11,NW,310,0.0,0.0,57,0.00,,CLR,0.00,VWS V14.01,2013-05-13 02:28:00,
2013-05-12 21:33:00,46.5,33.0,30.11,NW,310,0.0,0.0,59,0.00,,CLR,0.00,VWS V14.01,2013-05-13 02:33:00,
2013-05-12 21:38:00,46.5,33.0,30.11,NW,310,0.0,0.0,59,0.00,,CLR,0.00,VWS V14.01,2013-05-13 02:38:00,
2013-05-12 21:43:00,46.4,33.3,30.11,NW,310,0.0,0.0,60,0.00,,CLR,0.00,VWS V14.01,2013-05-13 02:43:00,
2013-05-12 21:48:00,46.1,33.8,30.11,NW,310,0.0,0.0,62,0.00,,CLR,0.00,VWS V14.01,2013-05-13 02:48:00,
2013-05-12 21:53:00,45.8,33.1,30.11,NW,310,0.0,0.0,61,0.00,,CLR,0.00,VWS V14.01,2013-05-13 02:53:00,
2013-05-12 21:58:00,45.7,33.4,30.11,NW,310,0.0,0.0,62,0.00,,CLR,0.00,VWS V14.01,2013-05-13 02:58:00,
2013-05-12 22:03:00,45.6,33.3,30.11,NW,310,0.0,0.0,62,0.00,,CLR,0.00,VWS V14.01,2013-05-13 03:03:00,
2013-05-12 22:08:00,45.4,33.2,30.11,NW,310,0.0,0.0,62,0.00,,CLR,0.00,VWS V14.01,2013-05-13 03:08:00,
2013-05-12 22:13:00,45.2,33.4,30.12,NW,310,0.0,0.0,63,0.00,,CLR,0.00,VWS V14.01,2013-05-13 03:13:00,
2013-05-12 22:18:00,45.0,33.6,30.11,NW,310,0.0,0.0,64,0.00,,CLR,0.00,VWS V14.01,2013-05-13 03:18:00,
2013-05-12 22:23:00,44.5,33.5,30.12,NW,310,0.0,0.0,65,0.00,,CLR,0.00,VWS V14.01,2013-05-13 03:23:00,
2013-05-12 22:28:00,44.5,33.9,30.11,NW,310,0.0,0.0,66,0.00,,CLR,0.00,VWS V14.01,2013-05-13 03:28:00,
2013-05-12 22:33:00,44.1,33.5,30.12,NW,310,0.0,0.0,66,0.00,,CLR,0.00,VWS V14.01,2013-05-13 03:33:00,
2013-05-12 22:38:00,43.3,33.5,30.12,NW,310,0.0,0.0,68,0.00,,CLR,0.00,VWS V14.01,2013-05-13 03:38:00,
2013-05-12 22:44:00,42.8,33.7,30.12,NW,310,0.0,0.0,70,0.00,,CLR,0.00,VWS V14.01,2013-05-13 03:44:00,
2013-05-12 22:49:00,42.8,34.1,30.12,NW,310,0.0,0.0,71,0.00,,CLR,0.00,VWS V14.01,2013-05-13 03:49:00,
2013-05-12 22:54:00,42.7,34.0,30.11,NW,310,0.0,0.0,71,0.00,,CLR,0.00,VWS V14.01,2013-05-13 03:54:00,
2013-05-12 22:59:00,42.7,34.0,30.11,NW,310,0.0,0.0,71,0.00,,CLR,0.00,VWS V14.01,2013-05-13 03:59:00,
2013-05-12 23:01:00,42.7,34.0,30.11,NW,310,0.0,0.0,71,0.00,,CLR,0.00,VWS V14.01,2013-05-13 04:01:00,
2013-05-12 23:02:00,42.6,33.9,30.11,NW,310,0.0,0.0,71,0.00,,CLR,0.00,VWS V14.01,2013-05-13 04:02:00,
2013-05-12 23:07:00,42.2,34.2,30.11,NW,310,0.0,0.0,73,0.00,,CLR,0.00,VWS V14.01,2013-05-13 04:07:00,
2013-05-12 23:12:00,42.0,34.3,30.11,NW,310,0.0,0.0,74,0.00,,CLR,0.00,VWS V14.01,2013-05-13 04:12:00,
2013-05-12 23:17:00,41.8,34.1,30.12,NNE,17,2.0,5.0,74,0.00,,CLR,0.00,VWS V14.01,2013-05-13 04:17:00,
2013-05-12 23:22:00,41.3,34.0,30.12,NNE,17,0.0,5.0,75,0.00,,CLR,0.00,VWS V14.01,2013-05-13 04:22:00,
2013-05-12 23:27:00,41.2,34.5,30.11,NNE,17,0.0,5.0,77,0.00,,CLR,0.00,VWS V14.01,2013-05-13 04:27:00,
2013-05-12 23:32:00,41.2,34.5,30.11,NNE,17,0.0,5.0,77,0.00,,CLR,0.00,VWS V14.01,2013-05-13 04:32:00,
2013-05-12 23:37:00,41.3,34.7,30.11,NNE,17,0.0,5.0,77,0.00,,CLR,0.00,VWS V14.01,2013-05-13 04:37:00,
2013-05-12 23:42:00,40.8,34.2,30.11,NNE,17,0.0,5.0,77,0.00,,CLR,0.00,VWS V14.01,2013-05-13 04:42:00,
2013-05-12 23:47:00,40.7,34.4,30.11,NNE,17,0.0,5.0,78,0.00,,CLR,0.00,VWS V14.01,2013-05-13 04:47:00,
2013-05-12 23:52:00,40.6,34.3,30.11,NNE,17,0.0,5.0,78,0.00,,CLR,0.00,VWS V14.01,2013-05-13 04:52:00,
2013-05-12 23:57:00,40.1,33.8,30.11,NNE,17,0.0,5.0,78,0.00,,CLR,0.00,VWS V14.01,2013-05-13 04:57:00,